Temperature
25 25 25 25 24 24 24 23 23 23 23 23 22 20 18 17 16 15 14 13 12 12 11 10 10 9 9 8 8 7 7 7 7 7 6 6 6 6 6 6 7 7 7 8
25 25 25 24 24 23 23 23 23 23 23 22 20 19 18 17 16 15 14 13 12 11 10 10 9 9 8 8 7 7 7 7 6 6 6 6 6 6 6 6 6 6 7 7
25 25 24 24 24 23 23 23 22 22 22 22 20 19 17 16 15 14 13 12 11 11 10 9 9 8 8 7 7 7 6 6 6 6 6 6 6 5 5 5 5 6 6 6
25 24 23 24 24 24 23 23 23 22 22 21 19 17 16 15 14 13 12 11 11 10 10 9 9 8 7 7 7 7 6 6 6 6 5 5 5 5 5 5 5 5 5 6
25 25 25 24 23 23 22 22 23 22 21 20 19 17 18 15 13 12 11 11 10 10 9 9 8 8 7 7 7 6 6 6 6 5 5 5 5 5 5 5 5 5 5 5
24 23 23 24 23 22 22 22 22 21 20 19 18 18 18 15 13 12 11 10 9 9 9 9 8 7 7 7 6 6 6 6 6 5 5 5 5 5 5 5 5 5 5 5
24 24 25 24 22 21 22 22 21 20 19 18 17 17 15 13 12 11 10 10 9 9 9 8 8 7 7 6 6 6 6 6 5 5 5 5 5 5 5 5 5 5 5 5
24 23 24 23 22 22 22 20 19 18 18 17 16 15 14 13 12 11 10 10 9 9 9 8 7 7 7 6 6 6 6 6 6 6 6 5 5 5 5 5 5 5 5 5
25 25 23 22 22 22 20 20 19 18 17 16 15 14 14 12 11 11 10 9 9 9 8 8 7 7 6 6 6 6 6 6 6 6 6 5 5 5 5 5 5 5 5 5
23 25 23 22 21 20 19 19 18 17 16 15 15 14 13 12 11 10 10 9 9 8 8 8 7 7 6 6 6 6 6 6 6 6 6 6 6 5 5 5 5 5 5 5
23 24 23 22 21 20 19 18 17 16 15 14 14 13 12 11 11 10 9 9 8 8 8 7 7 7 6 6 6 6 6 6 6 6 6 6 6 6 5 5 5 5 5 5
24 24 23 23 21 20 19 18 17 16 15 14 13 13 12 11 10 9 9 8 8 8 7 7 7 7 6 6 6 6 6 6 7 7 6 6 6 6 6 5 5 5 5 5
23 23 23 22 20 19 18 17 16 15 14 14 13 12 11 11 10 9 9 8 8 7 7 7 7 6 6 6 6 6 6 6 7 7 7 7 7 6 6 6 5 5 5 5
21 20 21 21 20 19 18 17 16 15 14 13 12 12 11 10 10 9 8 8 7 7 7 6 6 6 7 7 7 6 7 7 7 7 7 7 7 7 6 6 6 5 5 5
21 19 20 20 19 18 17 17 16 15 15 14 13 12 11 10 9 9 8 7 7 7 6 6 6 7 7 7 7 7 7 7 7 7 7 7 7 7 7 6 6 6 5 5
21 19 19 19 18 18 17 16 16 16 15 14 12 11 11 10 9 9 8 7 7 6 6 6 6 7 7 7 7 7 7 7 7 7 8 8 8 7 7 6 6 6 6 6
20 19 19 18 18 18 17 17 16 15 15 13 12 11 10 10 9 9 8 7 6 6 6 6 6 7 7 7 7 7 7 7 7 8 8 8 8 7 7 7 6 6 6 6
20 20 19 19 19 18 17 16 15 15 13 13 11 11 10 9 9 8 7 7 7 6 6 5 6 7 7 7 7 7 7 7 7 8 8 8 8 7 7 7 7 6 6 6
19 18 19 18 18 18 17 16 15 14 13 12 11 10 10 9 8 8 7 7 6 6 6 7 7 7 7 7 7 7 7 7 7 7 8 8 8 8 8 7 7 7 7 7
17 17 18 18 17 17 16 15 14 13 12 11 11 10 10 9 8 8 7 7 6 6 6 7 7 7 7 7 7 7 7 7 7 7 7 8 8 8 8 8 7 7 7 7
17 17 17 17 16 16 16 15 14 13 12 11 11 10 9 9 8 8 7 7 6 6 7 6 6 6 7 7 7 7 7 7 7 7 7 8 8 8 8 8 8 7 7 7
15 16 16 16 16 16 15 15 14 13 12 11 10 10 9 9 9 8 7 7 6 6 6 5 6 6 7 7 7 7 7 7 7 7 7 7 8 8 8 8 8 8 8 8
14 14 15 15 15 15 15 15 14 14 13 11 11 10 10 9 9 8 8 7 7 7 6 5 6 6 7 7 7 7 7 7 7 7 7 7 7 8 8 8 8 8 8 8
14 14 14 14 14 14 14 14 14 13 12 11 11 10 10 9 9 8 7 7 7 7 6 5 6 6 7 6 7 7 7 7 8 7 7 7 7 8 8 8 8 8 8 8
13 13 13 13 14 14 14 14 13 13 12 11 11 10 10 9 9 8 8 7 7 6 5 5 5 6 6 6 7 7 7 8 8 7 7 7 7 8 8 8 9 9 9 9
13 13 13 13 13 13 14 14 13 12 12 12 11 11 10 9 9 8 7 6 6 5 5 4 4 5 5 6 6 7 7 8 8 8 7 7 7 8 8 8 9 9 9 9
13 13 13 13 13 13 13 13 13 12 12 12 11 10 9 9 8 8 7 6 6 5 4 4 4 4 4 5 6 6 7 7 8 8 8 8 8 8 8 8 9 9 9 9
Wind_Speed
2 2 3 3 2 2 3 5 8 11 13 13 11 10 11 13 15 16 15 16 16 17 17 18 18 18 18 18 18 18 18 19 19 19 18 18 19 18 18 18 18 18 18 18
3 3 4 6 6 5 4 5 8 11 12 8 7 9 12 15 16 15 15 17 18 18 19 19 18 18 18 18 18 18 18 19 19 19 19 19 19 18 18 18 18 18 18 18
5 2 7 8 8 8 5 6 8 11 13 12 12 13 15 15 14 14 16 18 19 19 18 18 18 18 18 18 18 18 18 19 19 19 19 19 19 19 19 18 18 17 17 17
7 5 7 2 4 3 6 9 8 10 13 12 12 13 14 11 11 14 17 18 18 18 19 18 18 18 17 18 18 18 18 18 18 18 19 19 19 19 19 17 16 15 16 16
7 10 10 3 5 4 5 10 5 8 12 11 12 14 8 2 10 15 16 17 17 18 18 18 18 17 17 18 18 18 18 18 18 18 19 19 19 19 17 16 15 15 14 14
9 11 11 1 8 4 4 6 1 7 10 11 12 12 9 11 14 16 16 16 16 17 18 17 17 17 17 18 18 18 18 18 18 18 19 19 18 18 16 15 14 13 12 12
12 12 8 6 9 5 6 7 5 7 8 9 10 10 13 15 15 15 16 17 17 17 16 16 16 16 17 17 17 18 18 18 18 18 18 17 16 15 15 13 12 11 11 11
7 8 4 11 8 5 5 3 4 6 6 8 10 12 13 14 14 15 16 17 17 16 17 16 16 15 16 17 17 17 18 18 18 18 16 15 15 14 13 11 11 10 9 9
6 6 2 8 7 3 3 5 5 5 6 7 10 12 13 13 14 15 16 16 16 17 17 16 15 15 16 17 17 17 17 17 17 16 15 14 13 13 11 9 7 7 6 6
8 9 6 8 9 8 6 6 5 4 6 7 10 11 13 13 13 14 15 16 16 17 17 17 17 16 15 16 16 16 17 16 15 14 13 13 11 10 9 8 7 6 5 5
11 12 8 9 10 9 7 7 6 5 6 7 9 11 12 12 13 14 15 15 16 16 17 17 17 17 16 15 15 16 16 14 14 12 12 11 10 8 8 7 6 6 5 5
11 6 6 5 5 6 8 8 7 6 6 7 8 10 11 12 12 13 15 16 16 17 17 17 16 16 16 15 15 15 14 13 11 11 10 10 9 7 1 3 4 4 4 5
11 7 7 5 5 6 7 7 6 5 6 7 7 8 10 11 12 13 15 16 16 17 17 16 16 16 15 15 15 15 14 13 11 10 10 9 9 8 7 1 3 4 4 3
10 8 9 10 8 8 7 7 6 5 5 5 6 8 9 11 12 14 15 15 16 16 15 15 15 15 16 16 16 15 14 12 11 10 9 9 8 7 6 6 4 3 5 6
12 13 12 8 8 8 8 7 7 6 5 5 6 7 9 11 12 13 14 14 15 15 14 14 15 16 16 16 15 15 13 10 10 10 9 8 8 7 6 6 5 4 3 4
10 13 13 11 11 10 10 9 8 7 5 5 5 6 8 10 11 12 13 13 14 15 14 14 14 16 16 16 15 13 11 10 10 10 9 8 7 7 6 5 5 4 3 2
11 14 16 16 14 12 11 10 8 6 5 5 5 6 7 9 11 12 13 13 13 12 11 12 14 16 16 14 14 11 11 10 10 9 7 7 7 7 6 5 4 4 3 4
13 13 12 13 12 12 11 10 8 6 5 4 4 5 7 9 11 12 13 14 13 12 11 13 15 16 15 14 13 11 10 9 8 8 7 7 7 5 5 5 4 4 2 2
10 11 10 10 9 9 9 8 7 6 5 5 5 5 6 7 9 11 12 13 13 13 14 16 16 14 14 15 16 10 10 10 9 7 6 5 5 4 4 4 5 4 3 3
7 8 10 11 10 10 9 9 8 7 7 6 6 6 6 7 8 10 11 10 8 9 13 15 15 13 14 15 16 10 10 10 9 8 7 6 5 4 4 4 5 5 4 3
7 7 10 11 11 11 10 10 9 8 8 8 7 6 5 6 7 8 9 9 9 10 13 13 10 12 13 15 14 10 9 9 8 8 7 6 5 4 3 3 4 4 4 4
10 8 9 11 11 11 10 10 10 9 9 9 8 7 6 5 6 7 7 6 8 9 11 9 9 13 17 16 9 9 9 9 8 7 7 7 5 4 3 3 3 3 4 4
12 10 9 11 11 11 11 12 12 10 10 10 9 8 6 4 4 5 6 6 7 10 10 8 11 16 20 11 8 9 9 9 8 7 7 6 5 4 3 2 2 2 3 3
14 12 10 10 11 11 13 13 12 10 9 9 9 8 6 5 3 2 4 2 3 8 8 7 10 14 14 8 8 9 8 8 8 8 7 6 5 5 3 2 1 2 3 3
15 13 12 10 11 11 12 12 11 11 11 9 9 9 7 4 3 2 3 4 4 6 8 6 7 11 9 8 8 9 8 8 9 8 7 6 6 4 4 3 1 1 2 3
16 14 12 11 12 11 11 11 10 10 10 10 9 8 7 5 3 2 1 3 4 5 6 7 8 8 8 8 9 9 9 9 8 8 8 7 6 5 4 3 3 1 1 2
17 15 12 12 12 12 11 11 11 11 11 10 9 8 7 6 4 2 0 2 3 4 5 6 6 7 8 8 8 8 8 8 8 8 8 7 7 6 5 4 3 1 1 1
Wind_Direction
12 342 279 271 253 278 321 334 321 327 320 327 337 327 319 316 318 317 316 316 317 316 315 314 313 312 311 311 311 311 309 307 306 305 304 301 298 295 292 288 282 275 266 258
243 237 268 263 245 243 267 298 313 314 324 348 325 310 312 319 320 318 318 318 318 317 316 315 314 312 312 310 311 311 308 306 306 305 304 303 301 298 294 290 285 279 270 260
291 248 275 264 233 232 259 300 309 315 328 330 314 316 318 319 318 319 319 318 317 316 315 314 312 312 310 310 310 307 305 304 305 305 304 303 301 298 294 291 287 279 272 263
292 279 278 33 122 214 271 295 299 302 316 322 316 315 304 300 311 318 318 317 316 315 315 313 314 314 312 310 308 306 305 305 306 306 305 302 300 298 295 293 288 282 273 266
283 286 291 174 179 212 278 301 305 313 318 318 321 309 310 7 320 316 316 315 314 313 313 314 314 315 313 310 309 308 307 308 309 307 304 302 300 298 297 293 288 281 271 265
270 288 295 334 140 151 271 282 8 315 313 318 320 316 339 345 325 320 318 317 316 314 313 314 318 317 312 310 311 310 310 311 308 304 302 302 301 300 298 293 286 280 269 262
269 277 284 126 144 178 279 343 354 318 313 314 318 312 316 321 320 319 317 317 316 315 314 317 318 316 312 310 310 312 311 309 306 304 304 303 303 301 299 296 290 282 270 260
270 275 288 140 164 238 317 344 311 309 308 311 310 310 313 316 317 318 319 320 321 318 316 318 320 319 314 311 313 313 311 309 307 307 308 308 307 306 305 301 295 289 273 260
271 290 73 183 210 239 281 284 295 298 308 311 309 312 316 318 319 320 321 322 321 319 317 318 323 322 315 314 315 314 312 311 310 310 312 312 312 312 311 305 296 293 280 262
265 273 252 224 229 240 246 262 276 282 299 307 309 314 318 320 320 321 322 323 323 321 319 320 324 323 318 316 316 315 314 313 313 314 316 318 317 317 318 317 310 300 289 269
263 275 268 237 229 234 233 236 246 259 285 302 308 312 319 318 320 322 322 324 323 320 319 321 324 321 321 321 321 318 316 315 316 318 319 317 320 326 328 335 338 317 310 297
271 280 247 238 199 211 219 226 236 256 281 295 304 311 315 317 319 319 321 322 322 322 323 323 323 320 322 325 322 318 317 318 319 319 320 322 328 333 7 327 356 342 321 317
260 265 244 222 194 195 209 217 223 241 270 291 304 310 313 314 317 319 320 324 325 324 323 322 322 322 326 328 323 319 317 318 317 319 323 328 334 338 345 39 120 71 37 4
240 233 232 223 216 200 204 206 217 237 260 282 299 306 310 314 317 321 324 326 326 323 322 324 326 326 330 328 323 321 318 316 315 318 324 332 337 341 348 359 25 61 74 60
229 221 231 225 201 192 196 204 220 240 258 276 291 301 310 315 319 321 324 326 325 323 326 330 328 329 332 329 324 322 319 323 324 320 324 335 343 348 355 9 27 42 76 90
234 220 224 214 206 201 203 212 228 248 264 278 290 301 311 314 317 319 326 330 329 327 327 330 330 331 329 328 325 322 319 315 313 317 326 341 349 355 6 15 27 35 42 60
232 218 213 214 212 210 212 216 227 245 260 268 283 298 307 314 319 325 330 333 329 322 325 334 333 332 328 329 328 322 320 321 312 312 333 346 352 358 7 16 22 29 33 37
243 240 226 218 214 210 208 212 218 228 242 253 268 286 303 316 322 326 329 330 328 327 339 342 337 330 329 333 332 322 320 324 326 327 334 344 347 358 8 14 24 26 35 89
261 245 225 206 199 195 196 200 206 215 220 229 247 272 295 309 319 323 326 327 328 333 342 339 332 329 335 337 336 324 325 328 328 327 328 326 324 4 17 14 24 27 25 25
278 242 220 203 193 191 190 191 196 204 211 220 237 257 282 307 320 323 325 323 339 344 334 330 328 335 339 338 335 327 328 332 334 334 333 336 350 4 16 17 20 28 29 31
309 258 230 216 206 201 197 194 197 206 210 216 230 250 274 299 313 321 324 327 345 350 333 320 328 342 340 332 323 329 333 338 339 338 336 338 346 358 16 22 24 26 34 37
331 296 259 237 222 213 205 200 203 210 214 218 226 238 256 279 304 316 321 331 337 353 334 330 343 345 335 326 330 338 339 341 342 342 341 339 341 347 5 21 31 35 34 35
334 316 287 262 241 229 216 210 209 211 215 220 226 233 247 278 306 316 325 349 340 342 328 338 345 335 328 331 341 343 345 345 344 343 342 337 338 341 350 12 35 42 43 37
328 320 300 277 256 241 230 222 214 209 212 220 225 226 235 253 269 296 334 353 342 334 328 348 340 329 325 343 347 346 349 348 344 342 341 340 341 344 348 357 49 66 71 70
316 311 300 281 260 246 240 232 219 209 211 214 216 212 220 236 270 323 338 339 3 337 334 345 339 330 342 353 351 350 352 352 344 338 342 344 344 346 348 353 24 82 78 77
303 296 289 273 262 255 247 235 224 215 211 210 208 205 206 199 201 222 283 335 348 343 340 346 349 348 355 355 357 356 353 348 345 346 347 345 348 348 350 352 345 16 87 79
293 288 279 273 264 254 248 239 227 215 208 207 205 198 195 191 187 186 223 354 358 359 357 356 359 359 359 359 0 2 357 352 351 349 347 347 350 348 349 343 341 344 339 65
Height
1510 1510 1509 1510 1512 1513 1513 1515 1515 1514 1512 1508 1510 1513 1515 1515 1513 1511 1509 1506 1503 1499 1495 1490 1486 1481 1476 1471 1466 1461 1456 1451 1447 1443 1439 1434 1431 1427 1424 1421 1418 1416 1415 1415
1513 1511 1511 1512 1512 1514 1514 1514 1513 1512 1509 1508 1513 1514 1513 1512 1511 1508 1506 1502 1499 1495 1490 1486 1481 1476 1470 1465 1460 1455 1451 1446 1441 1436 1432 1428 1423 1419 1416 1412 1409 1407 1405 1405
1510 1510 1512 1513 1507 1510 1511 1510 1512 1511 1510 1509 1510 1511 1511 1510 1508 1506 1503 1499 1495 1491 1486 1481 1476 1471 1465 1460 1455 1450 1445 1440 1435 1430 1426 1421 1416 1412 1407 1404 1401 1398 1396 1395
1508 1515 1523 1508 1504 1507 1510 1509 1507 1508 1508 1509 1510 1510 1509 1507 1506 1504 1500 1496 1491 1487 1482 1477 1472 1466 1461 1455 1450 1445 1440 1435 1430 1425 1419 1414 1409 1404 1399 1395 1392 1389 1387 1386
1509 1508 1504 1503 1506 1508 1510 1507 1505 1507 1508 1508 1507 1507 1501 1504 1504 1501 1497 1492 1488 1483 1478 1472 1467 1462 1456 1450 1446 1440 1435 1430 1424 1418 1412 1407 1401 1396 1391 1387 1383 1380 1379 1378
1507 1515 1514 1499 1503 1508 1510 1506 1505 1507 1507 1506 1506 1501 1499 1502 1500 1497 1493 1488 1483 1478 1473 1468 1463 1457 1451 1446 1441 1435 1430 1424 1418 1412 1406 1400 1395 1389 1384 1380 1376 1373 1371 1370
1503 1505 1495 1497 1503 1508 1509 1505 1505 1505 1506 1506 1504 1504 1502 1499 1496 1493 1489 1484 1479 1474 1469 1464 1459 1453 1447 1441 1436 1430 1424 1418 1412 1406 1400 1395 1389 1383 1378 1374 1370 1367 1365 1364
1502 1505 1500 1499 1502 1502 1502 1503 1504 1504 1504 1504 1503 1502 1499 1497 1493 1489 1485 1480 1476 1470 1465 1460 1455 1449 1443 1437 1431 1425 1419 1413 1406 1401 1395 1390 1384 1378 1373 1369 1365 1362 1360 1359
1494 1495 1496 1497 1497 1499 1500 1501 1502 1502 1502 1502 1500 1499 1496 1493 1490 1486 1482 1477 1472 1467 1461 1456 1451 1445 1439 1432 1426 1420 1414 1408 1402 1396 1391 1385 1380 1374 1369 1365 1362 1359 1357 1356
1494 1488 1492 1494 1495 1497 1498 1498 1499 1499 1499 1499 1497 1495 1493 1490 1486 1483 1478 1473 1468 1463 1457 1452 1447 1441 1435 1428 1422 1416 1410 1404 1398 1393 1388 1382 1377 1372 1367 1363 1360 1357 1355 1354
1491 1488 1489 1490 1492 1493 1494 1495 1496 1496 1496 1496 1494 1492 1490 1487 1483 1479 1475 1470 1465 1460 1454 1449 1443 1437 1431 1425 1418 1412 1406 1401 1395 1390 1385 1380 1375 1370 1366 1362 1358 1355 1353 1352
1484 1483 1486 1486 1488 1489 1491 1492 1492 1493 1493 1492 1491 1489 1487 1484 1480 1476 1472 1467 1462 1456 1451 1445 1439 1433 1427 1421 1415 1409 1403 1398 1393 1388 1383 1378 1374 1369 1365 1361 1357 1354 1352 1351
1482 1482 1483 1484 1485 1486 1487 1488 1489 1489 1489 1489 1488 1486 1483 1481 1477 1473 1468 1464 1458 1453 1447 1441 1436 1430 1424 1418 1412 1406 1401 1396 1391 1387 1382 1377 1373 1368 1364 1361 1357 1354 1352 1351
1479 1480 1480 1481 1482 1482 1484 1485 1485 1486 1486 1485 1484 1482 1480 1477 1474 1470 1465 1460 1455 1449 1444 1438 1433 1427 1421 1415 1409 1404 1399 1394 1390 1386 1381 1377 1373 1368 1364 1361 1358 1356 1354 1353
1473 1474 1475 1476 1478 1479 1480 1481 1482 1482 1482 1481 1480 1479 1477 1474 1470 1466 1462 1456 1451 1446 1441 1435 1430 1424 1418 1412 1407 1402 1397 1393 1389 1385 1381 1377 1373 1369 1365 1362 1360 1357 1355 1354
1468 1469 1470 1472 1473 1474 1476 1477 1478 1478 1478 1478 1477 1475 1473 1470 1467 1463 1458 1453 1448 1443 1437 1432 1427 1422 1416 1410 1405 1400 1396 1392 1388 1384 1381 1377 1374 1370 1367 1364 1361 1359 1357 1356
1463 1463 1463 1465 1467 1469 1471 1473 1474 1474 1474 1473 1473 1471 1469 1467 1463 1459 1455 1450 1445 1440 1436 1430 1425 1419 1414 1409 1404 1399 1395 1391 1387 1384 1381 1378 1374 1371 1368 1365 1362 1360 1359 1358
1458 1459 1459 1460 1462 1465 1467 1468 1469 1469 1469 1469 1468 1467 1465 1463 1459 1455 1451 1446 1441 1438 1434 1428 1422 1417 1412 1407 1402 1398 1394 1390 1387 1384 1381 1378 1375 1372 1370 1367 1364 1362 1360 1359
1454 1455 1456 1457 1459 1461 1462 1463 1464 1465 1464 1464 1463 1462 1461 1459 1456 1452 1448 1443 1439 1435 1430 1424 1419 1415 1411 1406 1401 1397 1393 1390 1386 1384 1381 1378 1376 1373 1371 1368 1366 1364 1362 1360
1451 1452 1453 1454 1455 1456 1457 1458 1459 1460 1459 1459 1459 1458 1457 1455 1452 1448 1444 1441 1438 1432 1427 1421 1417 1413 1409 1404 1400 1396 1393 1389 1386 1383 1381 1379 1377 1374 1372 1370 1368 1366 1364 1362
1450 1450 1450 1451 1452 1452 1453 1454 1454 1455 1455 1455 1455 1454 1453 1451 1448 1445 1442 1439 1435 1429 1424 1419 1415 1411 1407 1403 1399 1396 1392 1389 1386 1383 1381 1379 1377 1376 1374 1372 1371 1369 1367 1365
1449 1448 1448 1448 1448 1448 1448 1449 1449 1450 1450 1450 1450 1449 1448 1447 1445 1442 1439 1436 1431 1426 1422 1418 1414 1410 1406 1402 1399 1395 1392 1389 1386 1384 1381 1379 1378 1377 1375 1374 1373 1371 1370 1368
1448 1445 1444 1444 1444 1444 1444 1444 1444 1445 1445 1446 1446 1445 1445 1443 1441 1439 1437 1433 1428 1424 1420 1417 1412 1408 1405 1402 1399 1395 1392 1389 1386 1384 1382 1380 1379 1378 1377 1376 1375 1374 1373 1371
1445 1443 1441 1439 1439 1438 1438 1438 1438 1439 1440 1440 1441 1441 1440 1439 1438 1436 1432 1429 1425 1422 1418 1415 1411 1407 1404 1401 1398 1395 1392 1389 1386 1384 1382 1381 1380 1379 1378 1378 1377 1377 1376 1375
1442 1439 1436 1434 1433 1432 1432 1433 1433 1433 1433 1434 1435 1435 1435 1434 1433 1432 1428 1426 1422 1419 1416 1413 1409 1406 1403 1400 1397 1395 1392 1389 1387 1384 1383 1381 1380 1380 1379 1379 1379 1380 1379 1379
1436 1433 1431 1428 1427 1425 1425 1426 1426 1426 1427 1428 1428 1429 1430 1429 1428 1426 1425 1423 1420 1417 1415 1412 1409 1406 1403 1400 1397 1394 1392 1389 1387 1385 1383 1382 1381 1380 1380 1380 1381 1382 1382 1382
1429 1426 1423 1421 1419 1418 1417 1417 1417 1417 1419 1420 1422 1423 1424 1424 1424 1423 1421 1420 1418 1416 1414 1411 1408 1405 1402 1399 1396 1394 1391 1389 1387 1385 1384 1382 1381 1381 1381 1381 1382 1383 1384 1384